Location: Dunedin
(45.8670°S, 170.5000°E)
Time: 14:48:09
(UTC+13:00)

ISS - Visible Passes

Search period start: 16 October 2019 00:00
Search period end: 26 October 2019 00:00
Orbit: 411 x 421 km, 51.6° (Epoch: 15 October)

Date Brightness Start Highest point End Pass type
(mag) Time Alt. Az. Time Alt. Az. Time Alt. Az.
16 Oct -0.7 03:33:42 13° E 03:33:42 13° E 03:34:12 10° E visible
16 Oct -3.7 05:06:38 35° W 05:07:49 57° NNW 05:11:12 10° NE visible
17 Oct -2.1 04:21:00 27° ENE 04:21:00 27° ENE 04:22:43 10° ENE visible
17 Oct -1.9 05:53:59 12° WNW 05:55:36 15° NW 05:57:40 10° N visible
18 Oct -1.8 05:08:51 17° N 05:08:51 17° N 05:10:03 10° NNE visible
18 Oct -2.0 21:47:55 10° NNW 21:49:13 19° N 21:49:13 19° N visible
19 Oct -2.3 21:00:02 10° N 21:02:32 20° NE 21:04:26 13° E visible
19 Oct -2.2 22:35:34 10° WNW 22:37:26 30° WNW 22:37:26 30° WNW visible
20 Oct -3.9 21:47:01 10° NW 21:50:24 74° NNE 21:52:06 27° ESE visible
20 Oct -0.9 23:24:12 10° W 23:25:04 16° WSW 23:25:04 16° WSW visible
21 Oct -3.4 20:58:38 10° NW 21:01:54 46° NE 21:05:11 10° ESE visible
21 Oct -2.5 22:35:25 10° W 22:38:41 42° SSW 22:39:16 38° SSE visible
22 Oct -3.1 21:46:41 10° WNW 21:50:02 55° SSW 21:53:09 12° ESE visible
22 Oct -1.3 23:24:10 10° WSW 23:26:04 24° SW 23:26:04 24° SW visible
23 Oct -3.6 20:58:01 10° WNW 21:01:25 79° SSW 21:04:52 10° ESE visible
23 Oct -2.0 22:35:24 10° WSW 22:38:31 31° S 22:39:42 24° SSE visible
24 Oct -0.3 00:12:36 10° WSW 00:12:37 10° SW 00:12:37 10° SW visible
24 Oct -2.2 21:46:37 10° W 21:49:48 36° SSW 21:53:00 10° ESE visible
24 Oct -1.5 23:23:59 10° WSW 23:26:05 26° SSW 23:26:05 26° SSW visible
25 Oct -2.6 20:57:50 10° W 21:01:07 44° SSW 21:04:25 10° ESE visible
25 Oct -2.0 22:35:19 10° WSW 22:38:23 30° S 22:39:28 24° SE visible
